STARLINK-11667

Satellite information

Favourite Embed

Satellite Type and Status

PAYLOADIN ORBIT

Key statistics

Satellite STARLINK-11667 at a glance.

Uptime

244

Days in orbit

Revolutions

≈ 15.7

Per day

Orbit

LEO

Low Earth Orbit

Inclination

43.0

Latest

Satellite identification and parameters

Extended collection of information and parameters for STARLINK-11667.

Object identification

Identified? True

Debris? False

Object name: STARLINK-11667

International designator: 2025-075C

Object number (NORAD): 63550

Object ID (CCSDS): 63550

Country: UNITED STATES OF AMERICA (US)

Current information (Y/N): Y

RCS size: LARGE

Orbital parameters

Period: 91.671 minutes

Inclination: 42.9991 deg

SMA: 6734.671 km

Apoapsis: 357.601 km

Periapsis: 355.471 km

RAAN: 321.497 deg

Eccentricy: 0.00015814

Argument of periapsis: 259.5182 deg

Mean anomaly: 100.5508 deg

Mean motion: 15.70826412 rev/day

Mean motion (dot): 0.00313321 rev/day2

B* drag term: 0.0023557144 1/REarth

Two-line elements (TLE)

Creation date: Dec. 12, 2025, 10:14 a.m.

Reference frame: TEME

Reference center: EARTH

Epoch: Dec. 12, 2025, 4:25 a.m. UTC

TLE line 0: 0 STARLINK-11667

TLE line 1: 1 63550U 25075C 25346.18466103 .00313321 00000-0 23557-2 0 9994

TLE line 2: 2 63550 42.9991 321.4970 0001581 259.5182 100.5508 15.70826412 39487

Live tracking on map

Real-time ground track for satellite STARLINK-11667.

In-orbit conjunctions

There are no conjunctions computed for STARLINK-11667, at the moment. Check back to stay up to date, as we update our databases every day.

Go to all conjunctions

Associated space launch

A batch of 21 satellites for the Starlink mega-constellation - SpaceX's project for space-based Internet communication system.

STARLINK-11667 was lifted into orbit during the mission ‘Falcon 9 Block 5 | Starlink Group 12-17’, on board a Falcon 9 space rocket.

The launch took place on April 13, 2025, 12:53 a.m. from Launch Complex 39A.

For more information about the launch, click the button.

Launch to space Falcon 9 Block 5 | Starlink Group 12-17
Falcon 9 Block 5 | Starlink Group 12-17

Agency: SpaceX

Status: Launch Successful

Launch date: April 13, 2025, 12:53 a.m. UTC

Rocket: Falcon 9

Launch pad: Launch Complex 39A

Location: Kennedy Space Center, FL, USA

...

Latest news about this satellite

News about space launch
Live coverage: SpaceX to launch 21 Starlink satellites on Falcon 9 rocket from the Kennedy Space Center

The Starlink 12-17 mission will carry 13 Starlink V2 Mini satellites that feature Direct to Cell capabilities. Liftoff from pad 39A at NASA’s Kennedy Space Center is targeting Friday, April 11, at 1:24 a.m. (0524 UTC).

News about space launch
Launch Roundup: Project Kuiper becomes operational; Falcon 9 to launch three missions

During this active week of launches, Atlas V will launch satellites for Amazon’s Project Kuiper,… The post Launch Roundup: Project Kuiper becomes operational; Falcon 9 to launch three missions appeared first on NASASpaceFlight.com.


Newsletter sign-up

Weekly statistics, charts and insights to help you stay on top of the space industry.